{"data":{"norad_id":59580,"epoch":"2026-09-21T13:24:37.006560Z","epoch_age_seconds":76763,"freshness":"FRESH","line1":"1 59580U 24076S   26264.55876165  .00000478  00000+0  26899-4 0  9995","line2":"2 59580  43.0039 342.3725 0001561 268.4622  91.6051 15.27579671136469","mean_motion":15.27579671,"eccentricity":0.0001561,"inclination_deg":43.0039,"raan_deg":342.3725,"arg_perigee_deg":268.4622,"mean_anomaly_deg":91.6051,"bstar":2.6899e-5,"rev_number":13646,"period_min":94.2667690162,"perigee_km":481.97904988081,"apogee_km":484.12111248756,"semimajor_km":6861.1870811842,"source":"CELESTRAK","updated_at":"2026-09-22T09:00:49.004759Z"}}